This demonstration page uses our WeatherBlox Daily Observations layout. Learn more.

Left ArrowRight Arrow

34.16533, -84.80231

Hourly Observations for November 27, 2022

Temp ( °F °C ) Dew Point ( °F °C ) Humidity (%) Winds ( mph kmh ) Pressure ( in mb ) Visibility ( mi km ) Precip ( " mm )
12:15 am 00:15 Cloudy with Light Rain 55 13 54 12 94 94 ESE 13 20 29.89 1012 9 14 0.00 0.00
12:35 am 00:35 Cloudy with Light Rain 55 13 54 12 94 94 ESE 14 22 29.90 1013 8 13 0.00 0.00
12:55 am 00:55 Cloudy with Light Rain 55 13 54 12 94 94 ESE 10 17 29.89 1012 10 16 0.01 0.25
1:15 am 01:15 Cloudy 55 13 54 12 94 94 E 10 17 29.87 1012 10 16 0.00 0.00
1:35 am 01:35 Cloudy with Light Rain 55 13 54 12 94 94 E 10 17 29.87 1012 8 13 0.00 0.00
1:55 am 01:55 Cloudy with Light Rain 55 13 54 12 94 94 E 12 19 29.83 1010 4 6 0.02 0.51
2:15 am 02:15 Cloudy with Light Rain 55 13 54 12 94 94 ESE 12 19 29.84 1011 9 14 0.00 0.00
2:35 am 02:35 Cloudy with Light Rain 55 13 54 12 94 94 ESE 15 24 29.82 1010 10 16 0.00 0.00
2:55 am 02:55 Cloudy with Light Rain 55 13 54 12 94 94 ESE 13 20 29.80 1009 4 6 0.04 1.02
3:15 am 03:15 Cloudy with Light Rain 55 13 55 13 100 100 ESE 13 20 29.78 1008 10 16 0.00 0.00
3:35 am 03:35 Cloudy with Light Rain 55 13 55 13 100 100 E 14 22 29.76 1008 7 11 0.00 0.00
3:55 am 03:55 Cloudy with Light Rain 55 13 55 13 100 100 ESE 10 17 29.75 1007 2 3 0.03 0.76
4:15 am 04:15 Cloudy with Light Rain 57 14 55 13 94 94 Calm 29.76 1008 3 5 0.00 0.00
4:35 am 04:35 Cloudy with Light Rain 57 14 55 13 94 94 ESE 7 11 29.74 1007 9 14 0.00 0.00
4:55 am 04:55 Cloudy 57 14 57 14 100 100 E 6 9 29.74 1007 10 16 0.07 1.78
5:15 am 05:15 Cloudy with Light Rain 57 14 57 14 100 100 ESE 7 11 29.74 1007 8 13 0.00 0.00
5:35 am 05:35 Cloudy 59 15 57 14 94 94 VRB 7 11 29.74 1007 10 16 0.00 0.00
5:55 am 05:55 Cloudy 59 15 57 14 94 94 VRB 7 11 29.74 1007 10 16 0.06 1.52
6:15 am 06:15 Cloudy 59 15 57 14 94 94 E 6 9 29.76 1008 10 16 0.00 0.00
6:35 am 06:35 Cloudy 57 14 57 14 100 100 E 9 15 29.75 1007 10 16 0.00 0.00
6:55 am 06:55 Cloudy 59 15 57 14 94 94 E 7 11 29.74 1007 10 16 0.00 0.00
7:15 am 07:15 Cloudy 59 15 57 14 94 94 Calm 29.74 1007 10 16 0.00 0.00
7:35 am 07:35 Cloudy 59 15 57 14 94 94 ESE 5 7 29.74 1007 10 16 0.00 0.00
7:55 am 07:55 Mostly Cloudy 59 15 57 14 94 94 Calm 29.76 1008 10 16 0.00 0.00
8:15 am 08:15 Mostly Sunny 59 15 59 15 100 100 Calm 29.74 1007 10 16 0.00 0.00
8:35 am 08:35 Sunny 61 16 55 13 82 82 SW 8 13 29.75 1008 10 16 0.00 0.00
8:55 am 08:55 Sunny 63 17 50 10 63 63 WSW 13 20 29.76 1008 10 16 0.00 0.00
9:15 am 09:15 Sunny 63 17 50 10 63 63 SSW 10 17 29.76 1008 10 16 0.00 0.00
9:35 am 09:35 Sunny 63 17 50 10 63 63 SW 12 19 29.77 1008 10 16 0.00 0.00
9:55 am 09:55 Mostly Cloudy 63 17 50 10 63 63 SW 14 22 29.78 1008 10 16 0.00 0.00
10:15 am 10:15 Partly Cloudy 61 16 50 10 68 68 WSW 10 17 29.80 1009 10 16 0.00 0.00
10:35 am 10:35 Partly Cloudy 61 16 48 9 63 63 W 15 24 29.79 1009 10 16 0.00 0.00
10:55 am 10:55 Partly Cloudy 61 16 46 8 59 59 WSW 13 20 29.80 1009 10 16 0.00 0.00
11:15 am 11:15 Mostly Cloudy 63 17 46 8 55 55 WSW 14 22 29.81 1009 10 16 0.00 0.00
11:35 am 11:35 Mostly Cloudy 63 17 46 8 55 55 SW 10 17 29.80 1009 10 16 0.00 0.00
11:55 am 11:55 Mostly Cloudy 63 17 46 8 55 55 W 17 28 29.81 1009 10 16 0.00 0.00
12:15 pm 12:15 Mostly Cloudy 61 16 46 8 59 59 W 13 20 29.80 1009 10 16 0.00 0.00
12:35 pm 12:35 Mostly Cloudy 63 17 46 8 55 55 SW 13 20 29.80 1009 10 16 0.00 0.00
12:55 pm 12:55 Mostly Cloudy 63 17 46 8 55 55 W 16 26 29.79 1009 10 16 0.00 0.00
1:15 pm 13:15 Mostly Cloudy 64 18 46 8 52 52 WSW 12 19 29.78 1008 10 16 0.00 0.00
1:35 pm 13:35 Mostly Cloudy 61 16 45 7 55 55 W 18 30 29.78 1009 10 16 0.00 0.00
1:55 pm 13:55 Partly Cloudy 63 17 46 8 55 55 W 12 19 29.79 1009 10 16 0.00 0.00
2:15 pm 14:15 Mostly Sunny 63 17 46 8 55 55 WSW 6 9 29.78 1008 10 16 0.00 0.00
2:35 pm 14:35 Partly Cloudy 64 18 45 7 49 49 WSW 10 17 29.77 1008 10 16 0.00 0.00
2:55 pm 14:55 Mostly Cloudy 64 18 45 7 49 49 W 12 19 29.78 1008 10 16 0.00 0.00
3:15 pm 15:15 Mostly Cloudy 63 17 45 7 52 52 W 13 20 29.78 1008 10 16 0.00 0.00
3:35 pm 15:35 Mostly Cloudy 63 17 45 7 52 52 W 9 15 29.78 1008 10 16 0.00 0.00
3:55 pm 15:55 Partly Cloudy 63 17 43 6 48 48 W 13 20 29.78 1008 10 16 0.00 0.00
4:15 pm 16:15 Partly Cloudy 64 18 43 6 45 45 WSW 10 17 29.78 1008 10 16 0.00 0.00
4:35 pm 16:35 Partly Cloudy 63 17 43 6 48 48 WSW 7 11 29.79 1009 10 16 0.00 0.00
4:55 pm 16:55 Mostly Cloudy 63 17 43 6 48 48 WSW 8 13 29.80 1009 10 16 0.00 0.00
5:15 pm 17:15 Partly Cloudy 63 17 43 6 48 48 VRB 5 7 29.80 1009 10 16 0.00 0.00
5:35 pm 17:35 Mostly Cloudy 61 16 43 6 51 51 W 9 15 29.81 1010 10 16 0.00 0.00
5:55 pm 17:55 Mostly Cloudy 61 16 43 6 51 51 W 8 13 29.81 1010 10 16 0.00 0.00
6:15 pm 18:15 Mostly Cloudy 59 15 43 6 55 55 WSW 6 9 29.84 1010 10 16 0.00 0.00
6:35 pm 18:35 Cloudy 61 16 45 7 55 55 W 5 7 29.84 1011 10 16 0.00 0.00
6:55 pm 18:55 Cloudy 59 15 45 7 59 59 Calm 29.85 1011 10 16 0.00 0.00
7:15 pm 19:15 Cloudy 59 15 45 7 59 59 Calm 29.86 1011 10 16 0.00 0.00
7:35 pm 19:35 Cloudy 59 15 45 7 59 59 Calm 29.86 1011 10 16 0.00 0.00
7:55 pm 19:55 Cloudy 59 15 45 7 59 59 Calm 29.86 1011 10 16 0.00 0.00
8:15 pm 20:15 Cloudy 57 14 45 7 63 63 Calm 29.86 1011 10 16 0.00 0.00
8:35 pm 20:35 Cloudy 57 14 45 7 63 63 Calm 29.87 1011 10 16 0.00 0.00
8:55 pm 20:55 Cloudy 57 14 45 7 63 63 Calm 29.87 1011 10 16 0.00 0.00
9:15 pm 21:15 Cloudy 59 15 45 7 59 59 Calm 29.87 1011 10 16 0.00 0.00
9:35 pm 21:35 Cloudy 59 15 45 7 59 59 Calm 29.87 1011 10 16 0.00 0.00
9:55 pm 21:55 Cloudy 57 14 45 7 63 63 Calm 29.88 1012 10 16 0.00 0.00
10:15 pm 22:15 Cloudy 59 15 45 7 59 59 Calm 29.87 1012 10 16 0.00 0.00
10:35 pm 22:35 Cloudy 59 15 45 7 59 59 Calm 29.87 1012 10 16 0.00 0.00
10:55 pm 22:55 Cloudy 57 14 45 7 63 63 Calm 29.88 1012 10 16 0.00 0.00
11:15 pm 23:15 Cloudy 59 15 45 7 59 59 Calm 29.89 1012 10 16 0.00 0.00
11:35 pm 23:35 Cloudy 57 14 45 7 63 63 Calm 29.89 1012 10 16 0.00 0.00
11:55 pm 23:55 Cloudy 59 15 46 8 63 63 Calm 29.89 1012 10 16 0.00 0.00

Powered by AerisWeather